Weather History for Saranac Lake, NY

Change the Weather History Date:

Monday, January 27, 2014

  Actual Average Record
Temperature  
Mean Temperature 14 °F 13 °F  
Max Temperature 30 °F 25 °F 59 °F (1950)
Min Temperature -3 °F 1 °F -32 °F (2003)
Degree Days  
Heating Degree Days 51 52  
Month to date heating degree days 1443 1395  
Since 1 July heating degree days 5281 5094  
Moisture  
Dew Point 7 °F    
Average Humidity 61    
Maximum Humidity 84    
Minimum Humidity 38    
Precipitation  
Precipitation T in 0.07 in 0.92 in (1986)
Month to date precipitation 1.55 1.83  
Year to date precipitation 1.55 1.83  
Sea Level Pressure  
Sea Level Pressure 29.51 in    
Wind  
Wind Speed 15 mph (WSW)    
Max Wind Speed 30 mph    
Max Gust Speed 48 mph    
Visibility 4 miles    
Events Fog , Snow    
T = Trace of Precipitation, MM = Missing Value Source: NWS Daily Summary

Daily Weather History Graph

Daily Weather History Graph

Search for Another Location

Airport:

Trip Planner

Search our weather history database for the weather conditions in past years. The results will help you decide how hot, cold, wet, or windy it might be!

Date:

Astronomy

Jan. 27, 2014 Rise Set
Actual Time 7:20 AM EST 4:59 PM EST
Civil Twilight 6:49 AM EST 5:30 PM EST
Nautical Twilight 6:13 AM EST 6:05 PM EST
Astronomical Twilight 5:39 AM EST 6:40 PM EST
Moon 4:00 AM EST (1/27) 1:41 PM EST (1/27)
Length of Visible Light 10h 41m
Length of Day
9h 38m
Waning Crescent, 15% of the Moon is Illuminated
Jan 27
Waning Crescent
Jan 30
New
Feb 6
First Quarter
Feb 14
Full
Feb 22
Last Quarter

Hourly Weather History & Observations

Time (EST) Temp. Windchill Dew Point Humidity Pressure Visibility Wind Dir Wind Speed Gust Speed Precip Events Conditions
12:51 AM 14.0 °F 0.5 °F 7.0 °F 74% 29.53 in 10.0 mi SW 11.5 mph - N/A   Overcast
1:51 AM 16.0 °F 3.6 °F 10.0 °F 77% 29.49 in 10.0 mi SSW 10.4 mph - N/A   Overcast
2:51 AM 18.0 °F 5.4 °F 12.0 °F 78% 29.46 in 10.0 mi SW 11.5 mph - N/A   Overcast
3:51 AM 19.0 °F 9.0 °F 14.0 °F 81% 29.43 in 10.0 mi WSW 8.1 mph - N/A   Overcast
4:37 AM 19.9 °F 7.9 °F 14.0 °F 78% 29.30 in 10.0 mi SW 11.5 mph 18.4 mph N/A   Overcast
4:51 AM 19.9 °F 8.6 °F 14.0 °F 78% 29.37 in 10.0 mi SW 10.4 mph - N/A   Overcast
5:51 AM 26.1 °F 11.3 °F 18.0 °F 71% 29.28 in 8.0 mi SSW 23.0 mph 27.6 mph N/A   Overcast
6:51 AM 28.9 °F 14.5 °F 23.0 °F 78% 29.25 in 5.0 mi SSW 25.3 mph 34.5 mph 0.00 in   Haze
7:41 AM 28.9 °F 14.0 °F 23.0 °F 78% 29.18 in 1.8 mi SSW 27.6 mph 39.1 mph 0.00 in Snow Light Snow
7:51 AM 28.0 °F 13.6 °F 23.0 °F 81% 29.28 in 1.2 mi SW 24.2 mph 35.7 mph 0.00 in Snow Light Snow
7:58 AM 28.0 °F 13.9 °F 21.9 °F 78% 29.22 in 0.8 mi SW 23.0 mph 35.7 mph 0.00 in Snow Light Snow
8:40 AM 28.0 °F 15.7 °F 23.0 °F 81% 29.26 in 1.2 mi SW 17.3 mph 32.2 mph 0.00 in Snow Light Snow
8:49 AM 26.6 °F 13.8 °F 23.0 °F 86% 29.27 in 0.5 mi SW 17.3 mph 27.6 mph 0.00 in Fog , Snow Snow
8:51 AM 27.0 °F 13.9 °F 23.0 °F 85% 29.36 in 0.5 mi WSW 18.4 mph 27.6 mph 0.00 in Fog , Snow Snow
8:55 AM 26.1 °F 14.0 °F 23.0 °F 88% 29.28 in 0.2 mi WSW 15.0 mph 27.6 mph 0.00 in Fog , Snow Snow
9:16 AM 21.9 °F 7.3 °F 21.0 °F 96% 29.35 in 0.2 mi West 18.4 mph 31.1 mph 0.00 in Fog , Snow Snow
9:35 AM 19.9 °F 9.3 °F 17.1 °F 89% 29.37 in 0.8 mi WSW 9.2 mph 20.7 mph 0.00 in Snow Light Snow
9:43 AM 19.9 °F 6.7 °F 16.0 °F 85% 29.38 in 0.8 mi WSW 13.8 mph 25.3 mph 0.00 in Snow Light Snow
9:51 AM 19.0 °F 4.0 °F 15.1 °F 85% 29.49 in 0.5 mi WSW 17.3 mph 25.3 mph 0.00 in Fog , Snow Snow
9:58 AM 18.0 °F -1.1 °F 14.0 °F 84% 29.42 in 0.2 mi WSW 28.8 mph 48.3 mph 0.00 in Fog , Snow Snow
10:14 AM 16.0 °F 0.1 °F 12.0 °F 84% 29.43 in 0.5 mi WSW 17.3 mph 36.8 mph 0.00 in Fog , Snow Light Snow
10:33 AM 15.1 °F -1.6 °F 10.0 °F 80% 29.45 in 1.0 mi WSW 18.4 mph 28.8 mph 0.00 in Snow Light Snow
10:42 AM 16.0 °F -0.4 °F 9.0 °F 74% 29.45 in 0.8 mi WSW 18.4 mph 33.4 mph 0.00 in Snow Light Snow
10:51 AM 16.0 °F -0.9 °F 9.0 °F 74% 29.54 in 1.2 mi WSW 19.6 mph 27.6 mph 0.00 in Snow Light Snow
10:59 AM 15.1 °F -2.5 °F 9.0 °F 77% 29.46 in 0.5 mi WSW 20.7 mph 33.4 mph 0.00 in Snow Snow
11:08 AM 15.1 °F -2.0 °F 10.9 °F 84% 29.46 in 0.2 mi West 19.6 mph 33.4 mph 0.00 in Fog , Snow Snow
11:22 AM 14.0 °F -3.0 °F 8.1 °F 77% 29.48 in 0.5 mi WSW 18.4 mph 34.5 mph 0.00 in Snow Snow
11:51 AM 15.1 °F -3.3 °F 5.0 °F 64% 29.59 in 1.0 mi WSW 23.0 mph 38.0 mph 0.00 in Snow Light Snow
12:03 PM 15.1 °F -3.7 °F 1.9 °F 56% 29.50 in 1.0 mi WSW 24.2 mph 40.3 mph 0.00 in   Unknown
12:10 PM 15.1 °F -3.3 °F 1.0 °F 54% 29.51 in 1.2 mi WSW 23.0 mph 41.4 mph 0.00 in Snow Light Snow
12:27 PM 15.1 °F -0.6 °F -0.0 °F 51% 29.51 in 3.0 mi WSW 16.1 mph 35.7 mph 0.00 in   Haze
12:40 PM 15.1 °F -1.1 °F -0.0 °F 51% 29.52 in 2.5 mi WSW 17.3 mph 38.0 mph 0.00 in   Haze
12:48 PM 15.8 °F -3.1 °F -2.2 °F 45% 29.53 in 3.0 mi WSW 25.3 mph 42.6 mph 0.00 in   Haze
12:51 PM 15.1 °F -4.7 °F -2.0 °F 47% 29.62 in 1.8 mi WSW 27.6 mph 43.7 mph 0.00 in   Haze
1:01 PM 14.0 °F -3.0 °F -2.9 °F 47% 29.54 in 3.0 mi WSW 18.4 mph 35.7 mph N/A   Haze
1:51 PM 14.0 °F -5.1 °F -5.1 °F 43% 29.66 in 4.0 mi WSW 24.2 mph 39.1 mph N/A   Haze
2:51 PM 12.9 °F -4.9 °F -9.9 °F 35% 29.70 in 7.0 mi West 19.6 mph 33.4 mph N/A   Partly Cloudy
3:51 PM 10.9 °F -6.5 °F -9.0 °F 40% 29.75 in 9.0 mi West 17.3 mph 28.8 mph N/A   Clear
4:51 PM 9.0 °F -7.9 °F -9.0 °F 44% 29.77 in 10.0 mi West 15.0 mph 27.6 mph N/A   Clear
5:51 PM 7.0 °F -6.6 °F -9.9 °F 46% 29.81 in 10.0 mi WSW 9.2 mph - N/A   Clear
6:51 PM 5.0 °F -8.1 °F -9.9 °F 50% 29.84 in 10.0 mi West 8.1 mph - N/A   Clear
7:51 PM 3.0 °F -8.0 °F -9.0 °F 57% 29.87 in 10.0 mi WSW 5.8 mph - N/A   Clear
8:51 PM 1.9 °F -10.6 °F -9.0 °F 60% 29.90 in 10.0 mi WSW 6.9 mph - N/A   Mostly Cloudy
9:51 PM -0.0 °F -7.9 °F -9.0 °F 66% 29.93 in 10.0 mi WSW 3.5 mph - N/A   Mostly Cloudy
10:51 PM -2.0 °F -10.1 °F -11.0 °F 66% 29.94 in 10.0 mi WSW 3.5 mph - N/A   Scattered Clouds
11:51 PM -2.0 °F -12.2 °F -11.0 °F 66% 29.95 in 10.0 mi WSW 4.6 mph - N/A   Overcast